Location: Allos
(44.2333°N, 6.6333°E)
Time: 04:14:43
(UTC+00:00)

YAOGAN 1 - Pass Details

Date: 01 December 2020
Orbit: 618 x 620 km, 97.9° (Epoch: 24 January)

Event Time Altitude Azimuth Distance (km) Brightness Sun altitude
Rises 18:38:11 0° 180° (S) 2,881 6.0 -28.4°
Enters shadow 18:38:58 - 182° (S) 2,563 5.8 -28.5°
Exits shadow 18:46:29 28° 318° (NW) 1,173 4.2 -29.9°
Drops below altitude 10° 18:48:46 10° 335° (NNW) 1,997 5.4 -30.3°
Sets 18:51:03 0° 342° (NNW) 2,909 6.2 -30.7°
